Location: Cheyres
(46.8153°N, 6.7877°E)
Time: 21:35:32
(UTC+00:00)

NANOSAT C BR1 - Pass Details

Date: 04 July 2022
Orbit: 584 x 599 km, 98.0° (Epoch: 13 August)

Event Time Altitude Azimuth Distance (km) Brightness Sun altitude
Rises 01:37:39 0° 15° (NNE) 2,852 ? -15.2°
Reaches altitude 10° 01:39:50 10° 18° (NNE) 1,947 ? -15.0°
Maximum altitude 01:44:04 71° 103° (ESE) 638 ? -14.6°
Enters shadow 01:46:50 21° 184° (S) 1,366 ? -14.4°
